[[{"header":{"parameterUnit":"m.s-1","parameterCategory":2,"la1":30.2991,"la2":30.254,"lo1":-89.0895,"lo2":-89.0444,"dy":0.0017,"dx":0.0017,"nx":28,"ny":28,"refTime":"2024-07-14T09:00:00:Z","depth":"0","parameterNumber":2,"parameterNumberName":"U-component_of_CURRENTS"},"data":[0,0,0,0,0,0,0,0,0,0,0,0,0,0,0,0,0,0,0,0,0,0,0,0,0,0,0,0,0,0,0,0,0,0,0,0,0,0,0,0,0,0,0,0,0,0,0,0,0,0,0,0,0,0,0,0,0,0,0.148,0.1479,0,0.1441,0.144,0.144,0.1392,0.1392,0.1391,0.139,0.1355,0.1355,0.1355,0,0,0,0,0,0,0,0,0,0,0,0,0,0.1485,0.1486,0.148,0.1479,0.1479,0.1441,0.144,0.144,0.1392,0.1392,0.1391,0.139,0.1356,0.1355,0.1355,0,0,0,0,0,0,0,0,0,0,0,0,0,0.1469,0.1486,0.148,0.145,0.1447,0.1441,0.144,0.144,0.1393,0.1391,0.139,0.1389,0.1356,0.1355,0.1355,0.1376,0,0,0.1354,0.1354,0,0,0,0,0,0,0,0,0.147,0.1469,0.1455,0.1452,0.1449,0.142,0.1429,0.1418,0.1393,0.1414,0.139,0.1389,0.1378,0.1376,0.1371,0.1375,0.1373,0.1354,0.1354,0.1354,0.1354,0,0,0,0,0,0,0,0.1471,0.147,0.1464,0.1455,0.1451,0.1429,0.1426,0.1427,0.1403,0.1412,0.1408,0.1404,0.1376,0.1372,0.137,0.1373,0.1354,0.1354,0.1354,0.1353,0.1451,0.1454,0,0,0,0,0,0,0.1478,0.1471,0.1466,0.1463,0.1456,0.143,0.1427,0.1431,0.1403,0.1397,0.1405,0.1402,0.1373,0.1371,0.1369,0.1448,0.1354,0.1353,0.1353,0.1448,0.1452,0.1455,0,0,0,0,0,0,0.1479,0.1479,0.1467,0.1465,0.1462,0.1432,0.1436,0.143,0.1427,0.1397,0.1392,0.1407,0.1372,0.1369,0.1397,0.1444,0.1353,0.1353,0.1445,0.1449,0.1453,0.157,0,0,0,0,0,0,0.1479,0.1479,0.1492,0.1466,0.1463,0.1479,0.1437,0.143,0.1426,0.1421,0.1398,0.1393,0.1371,0.1398,0.1397,0.1442,0.1353,0.1442,0.1447,0.1452,0.1562,0.1577,0.159,0,0,0,0,0,0.148,0.1501,0.1493,0.1493,0.1479,0.148,0.1477,0.1451,0.1427,0.144,0.1434,0.1394,0.143,0.14,0.1398,0.1444,0.1439,0.1446,0.1452,0.1556,0.1574,0.159,0,0,0,0,0,0,0.1526,0.1498,0.1488,0.1505,0.15,0.1472,0.1481,0.146,0.1463,0.1462,0.1427,0.1424,0.1467,0.1444,0.1412,0.149,0.1429,0.1435,0.151,0.1526,0.154,0.1565,0.1353,0,0,0,0,0,0.154,0.1543,0.1522,0.1542,0.1538,0.1512,0.1509,0.1495,0.1488,0.1487,0.1474,0.1473,0.1492,0.1499,0.1506,0.1546,0.1573,0.1577,0.1591,0.1602,0.1624,0.1703,0.1726,0.1475,0.1475,0.1475,0,0,0.1571,0.1552,0.1559,0.1551,0.1541,0.156,0.1508,0.1515,0.1543,0.1486,0.1525,0.1519,0.1515,0.1565,0.1582,0.1551,0.1697,0.161,0.162,0.1636,0.1712,0.1736,0.1758,0.148,0.1479,0.1478,0,0,0.1626,0.1612,0.1629,0.1627,0.1615,0.1604,0.1609,0.1593,0.1597,0.1631,0.1609,0.1641,0.1647,0.167,0.1678,0.1775,0.1767,0.177,0.1861,0.1938,0.1959,0.1978,0.208,0.2107,0.1778,0.1778,0.1778,0,0.1663,0.1679,0.1641,0.1658,0.1665,0.1628,0.1662,0.1669,0.1671,0.1694,0.166,0.1718,0.1706,0.1789,0.1824,0.1808,0.1857,0.1794,0.1957,0.1976,0.1993,0.2093,0.2121,0.1784,0.1784,0.1783,0.1782,0,0.1728,0.1744,0.1756,0.1763,0.1771,0.1794,0.1791,0.1814,0.1806,0.1813,0.1882,0.1879,0.1915,0.192,0.19,0.2023,0.2022,0.1965,0.1914,0.2026,0.2124,0.2152,0.1793,0.1791,0.1789,0.1788,0,0,0.1795,0.18,0.1805,0.182,0.1825,0.1837,0.1894,0.1934,0.1979,0.1994,0.2066,0.2106,0.2098,0.211,0.2096,0.2161,0.233,0.2124,0.2125,0.2227,0.2538,0.2613,0.265,0.23,0.2305,0.2309,0.257,0,0.1858,0.19,0.1894,0.1955,0.1973,0.1969,0.202,0.2055,0.2081,0.2145,0.2167,0.2223,0.2173,0.2198,0.2263,0.23,0.2403,0.2267,0.2413,0.2419,0.2472,0.2684,0.276,0.3005,0.2597,0.2601,0.2604,0,0.1919,0.1931,0.1991,0.2026,0.2037,0.2078,0.2145,0.2191,0.2269,0.2291,0.2358,0.2366,0.2475,0.2399,0.2569,0.2485,0.2543,0.2571,0.258,0.2627,0.2546,0.2821,0.307,0.296,0.2646,0.2643,0.264,0,0.1948,0.2001,0.2046,0.2059,0.2098,0.214,0.2173,0.224,0.2281,0.2397,0.2438,0.255,0.2602,0.2694,0.2749,0.2679,0.2934,0.2834,0.2975,0.298,0.3065,0.3071,0.3226,0.2998,0.2997,0.2996,0.2996,0,0.1992,0.2026,0.2066,0.2082,0.2141,0.2172,0.2248,0.2296,0.2383,0.2454,0.2516,0.2601,0.2675,0.28,0.2848,0.3031,0.3027,0.3068,0.3079,0.3112,0.3118,0.3034,0.2928,0.3006,0.3004,0.3002,0.3,0,0.1993,0.2026,0.2068,0.2125,0.2146,0.2184,0.2251,0.2312,0.2396,0.2499,0.2541,0.2676,0.2866,0.2961,0.3132,0.3169,0.3281,0.3372,0.3424,0.3438,0.345,0.3348,0.339,0.3366,0.3607,0.3611,0.3614,0,0.1981,0.2008,0.2071,0.2095,0.2119,0.2176,0.2218,0.2302,0.2368,0.2544,0.2604,0.2815,0.2963,0.3273,0.3434,0.3639,0.3449,0.3787,0.3666,0.3545,0.3438,0.3193,0.315,0.3841,0.3846,0.385,0.3853,0,0.1945,0.1981,0.201,0.2061,0.2112,0.2154,0.2229,0.2277,0.2403,0.2509,0.2689,0.2833,0.3189,0.3435,0.3709,0.3846,0.3676,0.3874,0.3743,0.3672,0.3424,0.3374,0.3563,0.3888,0.3885,0.3882,0.388,0.3879,0.1904,0.1915,0.1966,0.2014,0.2069,0.2124,0.2147,0.2253,0.2355,0.2517,0.2696,0.292,0.3322,0.3746,0.3867,0.4125,0.3925,0.4079,0.3985,0.376,0.3681,0.3969,0.4282,0.4281,0.428,0.4279,0.4279,0,0.183,0.1866,0.1912,0.1962,0.1998,0.2052,0.2143,0.2174,0.2281,0.2498,0.2665,0.3102,0.3469,0.3806,0.4215,0.4195,0.4066,0.413,0.3799,0.377,0.4079,0.4031,0.431,0.431,0.431,0.431,0.431,0.431,0.1793,0.1809,0.1845,0.1875,0.1915,0.194,0.1978,0.206,0.2196,0.2444,0.2683,0.2894,0.3353,0.3857,0.4097,0.4119,0.3839,0.3777,0.3632,0.3832,0.3816,0.3801,0.3732,0.3944,0.3943,0.33,0.3295,0.3292]},{"header":{"parameterUnit":"m.s-1","parameterCategory":2,"la1":30.2991,"la2":30.254,"lo1":-89.0895,"lo2":-89.0444,"dy":0.0017,"dx":0.0017,"nx":28,"ny":28,"refTime":"2024-07-14T09:00:00:Z","depth":"0","parameterNumber":3,"parameterNumberName":"V-component_of_CURRENTS"},"data":[0,0,0,0,0,0,0,0,0,0,0,0,0,0,0,0,0,0,0,0,0,0,0,0,0,0,0,0,0,0,0,0,0,0,0,0,0,0,0,0,0,0,0,0,0,0,0,0,0,0,0,0,0,0,0,0,0,0,-0.0326,-0.0327,0,-0.0401,-0.0402,-0.0403,-0.047,-0.0471,-0.0471,-0.0472,-0.0595,-0.0598,-0.06,0,0,0,0,0,0,0,0,0,0,0,0,0,-0.0274,-0.0274,-0.0326,-0.0327,-0.0327,-0.0401,-0.0402,-0.0404,-0.047,-0.0471,-0.0471,-0.0472,-0.0594,-0.0597,-0.0601,0,0,0,0,0,0,0,0,0,0,0,0,0,-0.032,-0.0275,-0.0326,-0.0367,-0.0372,-0.0401,-0.0402,-0.0404,-0.047,-0.0471,-0.0472,-0.0472,-0.0593,-0.0597,-0.0601,-0.0611,0,0,-0.0614,-0.0616,0,0,0,0,0,0,0,0,-0.0317,-0.0322,-0.0361,-0.0365,-0.0369,-0.0425,-0.0429,-0.0475,-0.047,-0.0436,-0.0472,-0.0473,-0.054,-0.0549,-0.0564,-0.0617,-0.0622,-0.0614,-0.0617,-0.0619,-0.062,0,0,0,0,0,0,0,-0.0314,-0.032,-0.0359,-0.0361,-0.0366,-0.0393,-0.0401,-0.0438,-0.0486,-0.0439,-0.0443,-0.0447,-0.0543,-0.056,-0.0568,-0.0624,-0.0614,-0.0618,-0.062,-0.0622,-0.069,-0.069,0,0,0,0,0,0,-0.0296,-0.0316,-0.0356,-0.0361,-0.0342,-0.0393,-0.0402,-0.0408,-0.0484,-0.0495,-0.0446,-0.0449,-0.0553,-0.0563,-0.0572,-0.0577,-0.0619,-0.0622,-0.0625,-0.0691,-0.069,-0.0689,0,0,0,0,0,0,-0.0295,-0.0299,-0.0353,-0.0338,-0.0346,-0.0393,-0.04,-0.0409,-0.0427,-0.0489,-0.0502,-0.0454,-0.0554,-0.0566,-0.0597,-0.0583,-0.0624,-0.0628,-0.0692,-0.0691,-0.069,-0.0594,0,0,0,0,0,0,-0.0293,-0.0298,-0.03,-0.0337,-0.0346,-0.0364,-0.0399,-0.041,-0.0427,-0.0432,-0.05,-0.0512,-0.0555,-0.059,-0.0601,-0.0589,-0.0631,-0.0693,-0.0691,-0.069,-0.0598,-0.059,-0.0583,0,0,0,0,0,-0.0291,-0.0282,-0.03,-0.0304,-0.0346,-0.0363,-0.0371,-0.0409,-0.0426,-0.0429,-0.047,-0.051,-0.059,-0.0593,-0.0606,-0.0595,-0.0693,-0.0692,-0.069,-0.0602,-0.0592,-0.0583,0,0,0,0,0,0,-0.0262,-0.0289,-0.0309,-0.031,-0.0333,-0.0373,-0.0375,-0.0401,-0.0436,-0.0442,-0.0502,-0.0517,-0.0539,-0.0578,-0.058,-0.0611,-0.0648,-0.0649,-0.0576,-0.0567,-0.056,-0.0534,-0.0635,0,0,0,0,0,-0.0254,-0.0256,-0.0287,-0.029,-0.0294,-0.0334,-0.0346,-0.0372,-0.0404,-0.0421,-0.0464,-0.0508,-0.0542,-0.0563,-0.0601,-0.0617,-0.0642,-0.0618,-0.0611,-0.0604,-0.0592,-0.0618,-0.0611,-0.0684,-0.0684,-0.0684,0,0,-0.0246,-0.0259,-0.0262,-0.0283,-0.0303,-0.0304,-0.0344,-0.0354,-0.0358,-0.0428,-0.0443,-0.0485,-0.0541,-0.0558,-0.0571,-0.0589,-0.0594,-0.0602,-0.0596,-0.0587,-0.0615,-0.0608,-0.0602,-0.0683,-0.0683,-0.0683,0,0,-0.0219,-0.0236,-0.0226,-0.0237,-0.0257,-0.0279,-0.0277,-0.0311,-0.0328,-0.0347,-0.0394,-0.0421,-0.0479,-0.0508,-0.0532,-0.0505,-0.0553,-0.0522,-0.0462,-0.0487,-0.0481,-0.0476,-0.0483,-0.048,-0.0517,-0.0516,-0.0516,0,-0.0208,-0.0202,-0.0226,-0.0216,-0.0217,-0.0261,-0.0248,-0.0268,-0.0309,-0.0311,-0.034,-0.0401,-0.0452,-0.0463,-0.0456,-0.0487,-0.0504,-0.0491,-0.0476,-0.0472,-0.0468,-0.0477,-0.0474,-0.0512,-0.0512,-0.0513,-0.0513,0,-0.0172,-0.017,-0.0159,-0.0163,-0.0166,-0.0162,-0.0185,-0.0192,-0.0216,-0.0238,-0.0253,-0.0314,-0.035,-0.0368,-0.0408,-0.0403,-0.0423,-0.0463,-0.0495,-0.0455,-0.0467,-0.0466,-0.0505,-0.0506,-0.0508,-0.0509,0,0,-0.0146,-0.0136,-0.0135,-0.0124,-0.0137,-0.0133,-0.0126,-0.0129,-0.0113,-0.0156,-0.014,-0.0199,-0.0229,-0.0258,-0.0307,-0.0326,-0.0318,-0.0376,-0.0379,-0.0373,-0.0357,-0.0359,-0.0359,-0.0357,-0.0356,-0.0356,-0.0369,0,-0.0114,-0.0077,-0.0085,-0.0055,-0.0037,-0.006,-0.0044,-0.0052,-0.0067,-0.0061,-0.011,-0.0125,-0.0189,-0.0203,-0.0229,-0.0297,-0.0313,-0.031,-0.0404,-0.0406,-0.0406,-0.0357,-0.0313,-0.032,-0.0368,-0.0368,-0.0368,0,-0.0079,-0.0057,-0.0014,0.001,0.0017,0.003,0.0057,0.0058,0.0055,0.0044,0.0026,-0.0016,-0.0044,-0.0112,-0.0189,-0.0183,-0.0259,-0.0312,-0.0315,-0.0349,-0.0407,-0.0372,-0.0317,-0.0438,-0.0367,-0.0367,-0.0367,0,-0.0039,-0.001,0.003,0.0037,0.006,0.0082,0.0087,0.0095,0.0109,0.0107,0.0121,0.0077,0.0057,-0.0033,-0.0141,-0.0169,-0.0221,-0.0283,-0.0351,-0.0352,-0.0348,-0.0349,-0.0413,-0.0339,-0.0339,-0.0339,-0.0339,0,-0.0001,0.0029,0.0055,0.0078,0.0131,0.0127,0.0174,0.0176,0.0191,0.0227,0.0173,0.0197,0.0074,0.0027,-0.0091,-0.0195,-0.0187,-0.032,-0.0351,-0.0313,-0.031,-0.0446,-0.056,-0.0339,-0.0339,-0.0339,-0.0339,0,0.0036,0.005,0.01,0.0138,0.0151,0.0187,0.0219,0.0253,0.0259,0.0306,0.0308,0.029,0.0239,0.0125,-0.0004,-0.0123,-0.0309,-0.0281,-0.0214,-0.0236,-0.0429,-0.0539,-0.0653,-0.0732,-0.0357,-0.0357,-0.0358,0,0.0063,0.0094,0.0145,0.0177,0.0196,0.0239,0.0271,0.0282,0.0319,0.0368,0.0402,0.0383,0.039,0.0225,0.0033,-0.014,-0.0296,-0.0243,-0.0302,-0.0411,-0.0557,-0.0624,-0.0688,-0.0255,-0.0254,-0.0253,-0.0253,0,0.0117,0.0133,0.0169,0.0229,0.0272,0.0322,0.0369,0.041,0.0438,0.0493,0.0565,0.0581,0.045,0.0336,0.0105,-0.0051,-0.0339,-0.0238,-0.0371,-0.049,-0.0548,-0.0646,-0.027,-0.0247,-0.0247,-0.0248,-0.0248,-0.0248,0.0152,0.0186,0.0228,0.0284,0.0336,0.0408,0.0463,0.0521,0.0599,0.0714,0.0712,0.0807,0.0623,0.0328,0.008,-0.0276,-0.0336,-0.0383,-0.0506,-0.056,-0.0641,-0.0241,-0.0249,-0.0249,-0.025,-0.025,-0.0251,0,0.0192,0.0224,0.0281,0.0352,0.042,0.0438,0.0534,0.0607,0.072,0.0853,0.094,0.0998,0.0705,0.0385,-0.0086,-0.0433,-0.0598,-0.0629,-0.0715,-0.0771,-0.0412,-0.0411,-0.0429,-0.0429,-0.0429,-0.0429,-0.0429,-0.0429,0.0214,0.0266,0.0293,0.041,0.0469,0.0577,0.0642,0.0759,0.088,0.1116,0.1273,0.1364,0.1225,0.0272,-0.0402,-0.0642,-0.0948,-0.1008,-0.1171,-0.0924,-0.091,-0.0896,-0.0917,-0.1042,-0.1043,-0.1439,-0.1444,-0.1447]}],[{"header":{"parameterUnit":"m.s-1","parameterCategory":2,"la1":30.2991,"la2":30.254,"lo1":-89.0895,"lo2":-89.0444,"dy":0.0017,"dx":0.0017,"nx":28,"ny":28,"refTime":"2024-07-14T09:00:00:Z","depth":"2","parameterNumber":2,"parameterNumberName":"U-component_of_CURRENTS"},"data":[0,0,0,0,0,0,0,0,0,0,0,0,0,0,0,0,0,0,0,0,0,0,0,0,0,0,0,0,0,0,0,0,0,0,0,0,0,0,0,0,0,0,0,0,0,0,0,0,0,0,0,0,0,0,0,0,0,0,0.0041,0.0042,0,0.0154,0.0156,0.0157,0.0181,0.018,0.0179,0.0178,0.0275,0.0278,0.0281,0,0,0,0,0,0,0,0,0,0,0,0,0,-0.0118,-0.0115,0.0041,0.0042,0.0043,0.0154,0.0156,0.0158,0.0181,0.018,0.0179,0.0178,0.0273,0.0278,0.0282,0,0,0,0,0,0,0,0,0,0,0,0,0,-0.003,-0.0114,0.004,0.0067,0.0071,0.0154,0.0156,0.0158,0.0181,0.018,0.0178,0.0177,0.0272,0.0277,0.0282,0.0344,0,0,0.0298,0.0301,0,0,0,0,0,0,0,0,-0.0035,-0.0024,0.0062,0.0066,0.007,0.0151,0.0135,0.0219,0.0182,0.0141,0.0178,0.0176,0.0232,0.024,0.0267,0.0349,0.0353,0.0299,0.0302,0.0304,0.0306,0,0,0,0,0,0,0,-0.0041,-0.0028,0.0087,0.0063,0.0068,0.0087,0.0097,0.0152,0.0194,0.0144,0.0146,0.0157,0.0234,0.0262,0.027,0.0354,0.0299,0.0303,0.0307,0.0309,0.0535,0.0537,0,0,0,0,0,0,-0.0058,-0.0034,0.0083,0.009,0.0011,0.009,0.0103,0.0127,0.0194,0.0202,0.0158,0.0157,0.0254,0.0263,0.0273,0.0367,0.0304,0.0309,0.0312,0.0532,0.0535,0.0538,0,0,0,0,0,0,-0.0061,-0.0048,0.0079,0.0028,0.0045,0.0094,0.0122,0.013,0.016,0.0204,0.0212,0.0178,0.0253,0.0266,0.0339,0.037,0.0311,0.0316,0.0528,0.0533,0.0537,0.0545,0,0,0,0,0,0,-0.0066,-0.0049,-0.003,0.0028,0.0048,0.0135,0.0124,0.0133,0.0168,0.0168,0.0225,0.0232,0.0253,0.0331,0.0344,0.0376,0.032,0.0525,0.053,0.0535,0.0541,0.0549,0.0556,0,0,0,0,0,-0.0072,-0.004,-0.003,-0.0015,0.0071,0.0136,0.0149,0.0178,0.017,0.0196,0.0238,0.023,0.0374,0.0338,0.0353,0.0387,0.0522,0.0529,0.0535,0.0538,0.0547,0.0555,0,0,0,0,0,0,-0.0092,-0.0033,-0.0021,0.0029,0.008,0.0139,0.0168,0.0184,0.0239,0.0239,0.0269,0.0282,0.0356,0.0383,0.0342,0.0473,0.0447,0.0457,0.0444,0.0454,0.0461,0.0453,0.0325,0,0,0,0,0,-0.0089,-0.0053,0.0006,0.0047,0.0071,0.012,0.015,0.0172,0.0224,0.0246,0.0284,0.0337,0.0398,0.0431,0.0486,0.0561,0.0588,0.0596,0.0603,0.0609,0.0616,0.0686,0.0699,0.0559,0.0559,0.0559,0,0,-0.0086,-0.0048,-0.0027,0.0045,0.0084,0.0135,0.0135,0.0187,0.0231,0.025,0.0322,0.0363,0.0425,0.0505,0.0541,0.0528,0.0667,0.0617,0.0621,0.0625,0.0694,0.0707,0.0718,0.0564,0.0563,0.0562,0,0,-0.0064,-0.0026,0.0009,0.0055,0.0116,0.0151,0.0164,0.023,0.0259,0.0337,0.0361,0.0424,0.0515,0.0567,0.0604,0.0692,0.0701,0.071,0.0742,0.0809,0.082,0.083,0.0888,0.0903,0.0716,0.0716,0.0716,0,-0.0067,-0.0005,0.0031,0.0079,0.0121,0.0156,0.0208,0.0253,0.0333,0.0371,0.0361,0.051,0.0547,0.0654,0.0681,0.0705,0.0742,0.0693,0.0815,0.0826,0.0836,0.0893,0.0909,0.0717,0.0717,0.0717,0.0716,0,-0.0016,0.0037,0.0065,0.0136,0.0183,0.0238,0.0297,0.0346,0.0377,0.0423,0.0525,0.0585,0.0672,0.0695,0.0713,0.0815,0.0817,0.0808,0.0779,0.0849,0.0906,0.0923,0.0718,0.0718,0.0718,0.0717,0,0,-0.0022,0.0077,0.0091,0.0135,0.022,0.0268,0.0339,0.0426,0.048,0.0545,0.0627,0.0721,0.0742,0.0787,0.082,0.0874,0.0969,0.087,0.0873,0.0905,0.112,0.1141,0.1161,0.0976,0.0979,0.0981,0.1131,0,0.0011,0.0099,0.0146,0.024,0.0295,0.0351,0.0419,0.0496,0.0557,0.0644,0.0706,0.0797,0.0782,0.0829,0.0881,0.0951,0.1014,0.0929,0.1068,0.1072,0.1063,0.1182,0.0933,0.1048,0.1148,0.115,0.1152,0,0.0057,0.0112,0.0201,0.0302,0.0331,0.0391,0.0505,0.0572,0.0686,0.0733,0.0818,0.0865,0.097,0.0937,0.1083,0.1029,0.1081,0.1121,0.1127,0.1155,0.1126,0.0997,0.1075,0.1181,0.1178,0.1176,0.1174,0,0.0051,0.0158,0.0228,0.0267,0.038,0.0435,0.0497,0.0607,0.0677,0.0801,0.0865,0.097,0.1051,0.1118,0.1197,0.1151,0.1349,0.1296,0.1368,0.1369,0.1191,0.1172,0.141,0.141,0.141,0.1409,0.1409,0,0.008,0.0143,0.0235,0.0283,0.0371,0.0447,0.0552,0.0625,0.0743,0.0841,0.0914,0.1016,0.1102,0.1214,0.1249,0.138,0.14,0.1409,0.1426,0.1191,0.1172,0.1304,0.1289,0.1415,0.1414,0.1412,0.1411,0,0.0075,0.0137,0.0224,0.0337,0.0378,0.0443,0.0576,0.0647,0.0759,0.0891,0.0938,0.109,0.1255,0.1341,0.1484,0.1476,0.1573,0.1611,0.1333,0.1316,0.1528,0.1513,0.1706,0.1708,0.171,0.1712,0.1713,0,0.0078,0.0123,0.0246,0.0297,0.0355,0.0457,0.0526,0.0647,0.0728,0.0939,0.1006,0.1211,0.1349,0.1569,0.157,0.1662,0.1711,0.1517,0.1393,0.157,0.1567,0.1549,0.1531,0.1153,0.1149,0.1147,0.1144,0,0.0075,0.0121,0.0184,0.0287,0.037,0.046,0.0574,0.0638,0.0792,0.0916,0.1116,0.1247,0.1434,0.1453,0.1571,0.1556,0.1474,0.1472,0.1746,0.1131,0.1065,0.1057,0.1054,0.112,0.1123,0.1125,0.1126,0.1127,0.0058,0.0093,0.0178,0.0275,0.0361,0.0461,0.0534,0.0658,0.0795,0.0962,0.1103,0.1229,0.1232,0.1312,0.1361,0.1367,0.1432,0.1326,0.1327,0.1332,0.1256,0.1199,0.1265,0.1268,0.1271,0.1273,0.1275,0,0.0031,0.0087,0.0164,0.0278,0.0354,0.0428,0.0562,0.0617,0.0769,0.0897,0.1049,0.0954,0.0991,0.1086,0.1045,0.108,0.0972,0.1073,0.0894,0.0913,0.0932,0.0831,0.073,0.0731,0.0731,0.0731,0,0,0.0025,0.0084,0.0132,0.0247,0.0332,0.0438,0.0514,0.0603,0.069,0.0783,0.0823,0.0841,0.0931,0.0782,0.0781,0.08,0.0848,0.0747,0.1146,0.0944,0.0964,0.1007,0.0867,0,0,0,0,0]},{"header":{"parameterUnit":"m.s-1","parameterCategory":2,"la1":30.2991,"la2":30.254,"lo1":-89.0895,"lo2":-89.0444,"dy":0.0017,"dx":0.0017,"nx":28,"ny":28,"refTime":"2024-07-14T09:00:00:Z","depth":"2","parameterNumber":3,"parameterNumberName":"V-component_of_CURRENTS"},"data":[0,0,0,0,0,0,0,0,0,0,0,0,0,0,0,0,0,0,0,0,0,0,0,0,0,0,0,0,0,0,0,0,0,0,0,0,0,0,0,0,0,0,0,0,0,0,0,0,0,0,0,0,0,0,0,0,0,0,0.0147,0.0146,0,0.0123,0.0123,0.0122,0.0104,0.0104,0.0104,0.0104,0.0059,0.0058,0.0057,0,0,0,0,0,0,0,0,0,0,0,0,0,0.0169,0.0169,0.0147,0.0146,0.0146,0.0123,0.0122,0.0122,0.0104,0.0104,0.0104,0.0103,0.006,0.0058,0.0057,0,0,0,0,0,0,0,0,0,0,0,0,0,0.0154,0.0169,0.0147,0.0134,0.0133,0.0123,0.0122,0.0122,0.0104,0.0104,0.0104,0.0103,0.006,0.0059,0.0057,0.0053,0,0,0.0052,0.0052,0,0,0,0,0,0,0,0,0.0155,0.0153,0.0136,0.0135,0.0134,0.0116,0.0114,0.0098,0.0104,0.0115,0.0104,0.0103,0.0077,0.0074,0.007,0.0051,0.0049,0.0052,0.0051,0.0051,0.005,0,0,0,0,0,0,0,0.0156,0.0154,0.0137,0.0136,0.0134,0.0127,0.0125,0.0111,0.0097,0.0114,0.0113,0.011,0.0076,0.0072,0.0069,0.0048,0.0052,0.0051,0.005,0.0049,-0.002,-0.0021,0,0,0,0,0,0,0.0159,0.0155,0.0138,0.0137,0.0144,0.0127,0.0124,0.0122,0.0098,0.0094,0.011,0.0109,0.0074,0.0071,0.0067,0.003,0.0051,0.0049,0.0048,-0.0019,-0.002,-0.0021,0,0,0,0,0,0,0.016,0.0158,0.0139,0.0145,0.0142,0.0127,0.0124,0.0122,0.0103,0.0095,0.0091,0.0093,0.0074,0.0069,0.0043,0.0029,0.0049,0.0047,-0.0018,-0.0019,-0.0021,-0.0025,0,0,0,0,0,0,0.0161,0.0158,0.015,0.0145,0.0142,0.0129,0.0125,0.0121,0.0103,0.0101,0.0079,0.0076,0.0073,0.0045,0.0041,0.0028,0.0046,-0.0017,-0.0019,-0.002,-0.0023,-0.0026,-0.0028,0,0,0,0,0,0.0161,0.0154,0.015,0.0147,0.0134,0.0128,0.0126,0.0114,0.0102,0.0096,0.0076,0.0075,0.0031,0.0043,0.0039,0.0025,-0.0016,-0.0018,-0.002,-0.0022,-0.0025,-0.0028,0,0,0,0,0,0,0.0153,0.0152,0.0147,0.0137,0.0131,0.0125,0.0113,0.0105,0.0084,0.0074,0.0066,0.0061,0.0032,0.0026,0.0039,-0.0002,0.0006,0.0003,0.0006,0.0003,0.0001,0.001,0.0045,0,0,0,0,0,0.015,0.0148,0.0142,0.0134,0.0128,0.0116,0.0108,0.0101,0.0086,0.0076,0.0063,0.0042,0.0022,0.0011,-0.0005,-0.0027,-0.0043,-0.0041,-0.0043,-0.0045,-0.0042,-0.0085,-0.0091,-0.0028,-0.0028,-0.0028,0,0,0.0144,0.0142,0.014,0.0132,0.0123,0.0121,0.011,0.0095,0.009,0.0074,0.0054,0.0032,0.0013,-0.001,-0.0023,-0.0017,-0.0073,-0.0048,-0.0049,-0.0045,-0.0088,-0.0094,-0.0099,-0.003,-0.0029,-0.0029,0,0,0.0143,0.0128,0.0131,0.0126,0.0114,0.011,0.0102,0.0089,0.0076,0.0055,0.0039,0.0009,-0.0017,-0.0031,-0.0042,-0.007,-0.0085,-0.0081,-0.0084,-0.0126,-0.0131,-0.0136,-0.0166,-0.0174,-0.008,-0.008,-0.008,0,0.0134,0.014,0.0128,0.013,0.0128,0.0105,0.0107,0.0092,0.0071,0.006,0.0047,-0.0006,-0.0024,-0.0053,-0.0064,-0.0074,-0.0099,-0.0068,-0.0128,-0.0134,-0.0139,-0.0168,-0.0176,-0.0081,-0.0081,-0.0081,-0.0081,0,0.0144,0.0142,0.0139,0.0141,0.0134,0.0128,0.0114,0.0097,0.0073,0.006,0.0019,-0.0014,-0.0044,-0.0061,-0.0071,-0.0116,-0.0123,-0.0127,-0.0118,-0.0145,-0.0175,-0.0183,-0.0081,-0.0081,-0.0081,-0.0081,0,0,0.0135,0.0148,0.0143,0.0153,0.0139,0.0139,0.0123,0.0109,0.0101,0.0057,0.004,-0.0014,-0.0042,-0.0058,-0.0085,-0.0124,-0.0184,-0.0143,-0.0145,-0.0166,-0.0278,-0.0213,-0.0216,-0.0205,-0.0206,-0.0208,-0.0285,0,0.0145,0.0163,0.0162,0.0172,0.018,0.016,0.0156,0.0135,0.0109,0.0085,0.0028,-0.0002,-0.0038,-0.006,-0.0109,-0.0162,-0.0207,-0.0163,-0.0253,-0.0255,-0.019,-0.0224,-0.0261,-0.0326,-0.0293,-0.0294,-0.0295,0,0.015,0.0168,0.0182,0.0203,0.0203,0.0201,0.019,0.0183,0.0141,0.0116,0.0064,0.0024,-0.0045,-0.007,-0.0188,-0.0161,-0.0223,-0.0267,-0.0271,-0.0212,-0.0206,-0.0295,-0.0343,-0.031,-0.0308,-0.0307,-0.0306,0,0.0158,0.0179,0.0195,0.0198,0.0213,0.021,0.0211,0.0185,0.0189,0.0129,0.012,0.0029,-0.001,-0.0111,-0.0201,-0.0207,-0.032,-0.0336,-0.0337,-0.0333,-0.038,-0.0377,-0.0423,-0.0423,-0.0422,-0.0422,-0.0422,0,0.0171,0.0184,0.0199,0.0207,0.0233,0.0226,0.0238,0.0224,0.0207,0.0218,0.0133,0.013,-0.0024,-0.0097,-0.0197,-0.0282,-0.0322,-0.034,-0.035,-0.0381,-0.0377,-0.0371,-0.0364,-0.0425,-0.0425,-0.0424,-0.0423,0,0.018,0.0185,0.021,0.0227,0.0237,0.0249,0.0277,0.0294,0.0261,0.0269,0.0252,0.0189,0.0094,-0.0042,-0.0192,-0.0253,-0.0353,-0.0373,-0.0386,-0.0394,-0.0345,-0.0338,-0.0397,-0.0395,-0.0394,-0.0393,-0.0392,0,0.0199,0.0209,0.0228,0.0254,0.0264,0.0288,0.0319,0.0314,0.0344,0.0326,0.0347,0.026,0.0246,0.0062,-0.0104,-0.0267,-0.0312,-0.0387,-0.0394,-0.034,-0.0344,-0.0338,-0.0333,-0.0477,-0.0477,-0.0477,-0.0477,0,0.0252,0.0238,0.0262,0.0306,0.0339,0.0389,0.0433,0.0467,0.0467,0.048,0.0517,0.0506,0.0331,0.0152,-0.0069,-0.0173,-0.0364,-0.0382,-0.036,-0.0444,-0.0413,-0.0417,-0.041,-0.0476,-0.0476,-0.0476,-0.0476,-0.0476,0.0301,0.0319,0.0345,0.0388,0.043,0.0503,0.0571,0.0625,0.0691,0.0739,0.0698,0.0626,0.0356,0.0065,-0.0099,-0.0294,-0.0278,-0.0394,-0.0398,-0.04,-0.0362,-0.0326,-0.0367,-0.0366,-0.0366,-0.0365,-0.0365,0,0.0386,0.0399,0.0444,0.051,0.0579,0.0574,0.0672,0.0752,0.0864,0.0824,0.0873,0.052,0.0336,0.0035,-0.0242,-0.0355,-0.0385,-0.0418,-0.0483,-0.0483,-0.0484,-0.0452,-0.048,-0.048,-0.0481,-0.0481,0,0,0.044,0.049,0.0501,0.0638,0.0687,0.0812,0.0876,0.0974,0.0971,0.09,0.0756,0.0708,0.0286,0.0032,-0.0173,-0.0329,-0.0348,-0.0337,-0.0236,-0.0286,-0.0283,-0.047,-0.0419,0,0,0,0,0]}],[{"header":{"parameterUnit":"m.s-1","parameterCategory":2,"la1":30.2991,"la2":30.254,"lo1":-89.0895,"lo2":-89.0444,"dy":0.0017,"dx":0.0017,"nx":28,"ny":28,"refTime":"2024-07-14T09:00:00:Z","depth":"4","parameterNumber":2,"parameterNumberName":"U-component_of_CURRENTS"},"data":[0,0,0,0,0,0,0,0,0,0,0,0,0,0,0,0,0,0,0,0,0,0,0,0,0,0,0,0,0,0,0,0,0,0,0,0,0,0,0,0,0,0,0,0,0,0,0,0,0,0,0,0,0,0,0,0,0,0,0.0077,0.0076,0,0.0043,0.0042,0.0042,0.0006,0.0005,0.0005,0.0005,-0.0034,-0.0035,-0.0036,0,0,0,0,0,0,0,0,0,0,0,0,0,0.0091,0.0091,0.0077,0.0076,0.0076,0.0043,0.0042,0.0042,0.0006,0.0005,0.0005,0.0005,-0.0034,-0.0035,-0.0036,0,0,0,0,0,0,0,0,0,0,0,0,0,0.0072,0.0091,0.0077,0.0056,0.0054,0.0043,0.0042,0.0042,0.0006,0.0005,0.0005,0.0005,-0.0034,-0.0035,-0.0036,-0.0035,0,0,-0.004,-0.004,0,0,0,0,0,0,0,0,0.0073,0.0071,0.0059,0.0058,0.0055,0.003,0.0033,0.0017,0.0006,0.0021,0.0005,0.0004,-0.0011,-0.0014,-0.0023,-0.0037,-0.0039,-0.004,-0.0041,-0.0041,-0.0041,0,0,0,0,0,0,0,0.0074,0.0072,0.0061,0.0059,0.0057,0.0043,0.0039,0.003,0.0006,0.002,0.0018,0.0019,-0.0013,-0.0022,-0.0024,-0.0039,-0.004,-0.0041,-0.0042,-0.0042,-0.0078,-0.0078,0,0,0,0,0,0,0.0085,0.0074,0.0062,0.006,0.0066,0.0043,0.0039,0.0037,0.0006,0.0002,0.0019,0.0017,-0.002,-0.0023,-0.0026,-0.005,-0.0041,-0.0042,-0.0043,-0.0078,-0.0078,-0.0078,0,0,0,0,0,0,0.0086,0.0084,0.0063,0.0068,0.0065,0.0044,0.0041,0.0036,0.0029,0.0006,0.0,0.0017,-0.002,-0.0024,-0.0039,-0.0051,-0.0043,-0.0044,-0.0078,-0.0078,-0.0078,-0.0084,0,0,0,0,0,0,0.0086,0.0085,0.0084,0.0069,0.0065,0.0057,0.0042,0.0036,0.0031,0.0028,0.0002,-0.0002,-0.0021,-0.0038,-0.0041,-0.0053,-0.0045,-0.0077,-0.0078,-0.0078,-0.0083,-0.0084,-0.0085,0,0,0,0,0,0.0087,0.0085,0.0084,0.0082,0.0065,0.0058,0.0054,0.0036,0.0031,0.0028,0.0007,-0.0001,-0.0043,-0.0039,-0.0042,-0.0055,-0.0077,-0.0078,-0.0078,-0.0083,-0.0084,-0.0085,0,0,0,0,0,0,0.0086,0.0081,0.0079,0.0075,0.007,0.0053,0.0048,0.0042,0.0023,0.0021,-0.0002,-0.0008,-0.0027,-0.0035,-0.003,-0.0066,-0.0062,-0.0063,-0.0064,-0.0066,-0.0067,-0.0053,-0.0046,0,0,0,0,0,0.0089,0.0089,0.0082,0.008,0.0079,0.0067,0.0062,0.0054,0.0039,0.003,0.0012,-0.0009,-0.0032,-0.0043,-0.006,-0.0076,-0.0063,-0.0086,-0.0087,-0.0088,-0.0079,-0.0088,-0.0089,-0.008,-0.008,-0.008,0,0,0.0088,0.0087,0.0086,0.0081,0.0075,0.0074,0.0062,0.0058,0.0053,0.003,0.0014,-0.0009,-0.0035,-0.006,-0.0069,-0.0069,-0.0077,-0.0089,-0.0089,-0.008,-0.0088,-0.0089,-0.009,-0.0081,-0.0081,-0.0081,0,0,0.0095,0.0087,0.0093,0.0091,0.009,0.0081,0.0084,0.0072,0.0059,0.0046,0.0021,-0.0002,-0.0031,-0.0058,-0.0074,-0.0085,-0.008,-0.0096,-0.0095,-0.0104,-0.0104,-0.0105,-0.0061,-0.0057,-0.01,-0.01,-0.01,0,0.0097,0.0101,0.0093,0.01,0.0097,0.0087,0.0092,0.0078,0.0061,0.0055,0.0043,-0.0002,-0.0029,-0.006,-0.0078,-0.0087,-0.0076,-0.009,-0.0105,-0.0105,-0.0105,-0.006,-0.0057,-0.0101,-0.0101,-0.0101,-0.0101,0,0.011,0.0112,0.0114,0.0118,0.0113,0.0115,0.0102,0.0095,0.0081,0.007,0.0046,0.0007,-0.002,-0.0041,-0.0071,-0.0094,-0.0077,-0.0102,-0.0101,-0.0106,-0.0058,-0.0054,-0.0101,-0.0101,-0.0101,-0.0101,0,0,0.0116,0.0124,0.0124,0.0131,0.0123,0.0123,0.0114,0.0105,0.0105,0.0079,0.0076,0.0016,-0.0001,-0.0021,-0.0059,-0.0078,-0.0076,-0.0099,-0.01,-0.0052,-0.006,-0.0002,0.0008,-0.0115,-0.0115,-0.0115,-0.0014,0,0.013,0.0149,0.0143,0.0152,0.0158,0.0143,0.0136,0.0126,0.0112,0.0106,0.007,0.0046,0.0005,-0.0019,-0.0043,-0.0075,-0.0071,-0.0098,-0.0064,-0.0061,-0.0008,0.0012,-0.0115,-0.0011,-0.001,-0.0009,-0.0009,0,0.0142,0.0154,0.017,0.0173,0.0174,0.0173,0.0165,0.0156,0.0143,0.0131,0.0109,0.0084,0.0049,0.0011,-0.0013,-0.0032,-0.0042,-0.0056,-0.0053,0.0005,0.0003,-0.0012,-0.0001,-0.0002,-0.0002,-0.0003,-0.0003,0,0.0152,0.0168,0.0182,0.0184,0.0187,0.0185,0.0178,0.0166,0.0162,0.0144,0.0147,0.0113,0.0099,0.0066,0.0042,0.0002,0.0045,-0.001,0.0052,0.0058,-0.0022,-0.0023,-0.0008,-0.0008,-0.0009,-0.0009,-0.0009,0,0.0161,0.017,0.0191,0.0195,0.0208,0.0199,0.0203,0.0192,0.0187,0.0195,0.0157,0.0161,0.0103,0.0118,0.0082,0.0108,0.0084,0.0075,0.0083,-0.0022,-0.0024,-0.0017,-0.0019,-0.0005,-0.0006,-0.0007,-0.0007,0,0.0159,0.0174,0.0191,0.0206,0.0212,0.0215,0.0217,0.0221,0.0212,0.0224,0.0218,0.0206,0.0216,0.021,0.0187,0.0178,0.0181,0.02,0.0153,0.0154,0.0193,0.0189,0.0266,0.0269,0.0271,0.0273,0.0275,0,0.0159,0.0169,0.0199,0.0213,0.0217,0.0226,0.0232,0.0227,0.0236,0.0253,0.0266,0.0286,0.0279,0.0327,0.0296,0.0305,0.0282,0.0312,0.0186,0.0219,0.0219,0.0211,0.0204,0.0279,0.0279,0.028,0.0281,0,0.0149,0.0162,0.0178,0.0212,0.0227,0.0245,0.0257,0.0269,0.0273,0.0281,0.0307,0.0317,0.036,0.0347,0.0392,0.0372,0.0296,0.0335,0.0328,0.0209,0.0235,0.0231,0.0221,0.0289,0.0288,0.0287,0.0286,0,0.0136,0.0148,0.0175,0.0202,0.0235,0.0259,0.0262,0.0284,0.0295,0.0319,0.0336,0.0353,0.0364,0.0387,0.041,0.0426,0.038,0.0348,0.0339,0.033,0.03,0.0338,0.045,0,0,0,0,0,0.0117,0.0133,0.0162,0.0195,0.0234,0.0251,0.0283,0.0286,0.0308,0.0331,0.0331,0.0363,0.0393,0.04,0.0421,0.0428,0.0382,0.0453,0.0339,0.0334,0.0324,0.0281,0,0,0,0,0,0,0.0106,0.0129,0.0154,0.0194,0.0217,0.025,0.0272,0.0282,0.0297,0.032,0.0333,0.0358,0.0383,0.0373,0.0413,0.0421,0.035,0.0471,0.0472,0.0339,0.0331,0.0323,0.0275,0,0,0,0,0]},{"header":{"parameterUnit":"m.s-1","parameterCategory":2,"la1":30.2991,"la2":30.254,"lo1":-89.0895,"lo2":-89.0444,"dy":0.0017,"dx":0.0017,"nx":28,"ny":28,"refTime":"2024-07-14T09:00:00:Z","depth":"4","parameterNumber":3,"parameterNumberName":"V-component_of_CURRENTS"},"data":[0,0,0,0,0,0,0,0,0,0,0,0,0,0,0,0,0,0,0,0,0,0,0,0,0,0,0,0,0,0,0,0,0,0,0,0,0,0,0,0,0,0,0,0,0,0,0,0,0,0,0,0,0,0,0,0,0,0,-0.0294,-0.0294,0,-0.0327,-0.0328,-0.0329,-0.0384,-0.0385,-0.0386,-0.0386,-0.0448,-0.0449,-0.045,0,0,0,0,0,0,0,0,0,0,0,0,0,-0.0261,-0.0262,-0.0294,-0.0294,-0.0294,-0.0327,-0.0328,-0.0329,-0.0384,-0.0385,-0.0386,-0.0386,-0.0447,-0.0448,-0.045,0,0,0,0,0,0,0,0,0,0,0,0,0,-0.0287,-0.0262,-0.0294,-0.0323,-0.0325,-0.0327,-0.0328,-0.0329,-0.0384,-0.0385,-0.0386,-0.0387,-0.0447,-0.0448,-0.045,-0.044,0,0,-0.0455,-0.0455,0,0,0,0,0,0,0,0,-0.0285,-0.0289,-0.0318,-0.0321,-0.0324,-0.0349,-0.0338,-0.0366,-0.0384,-0.0366,-0.0386,-0.0387,-0.0414,-0.0418,-0.0428,-0.0443,-0.0445,-0.0455,-0.0456,-0.0456,-0.0457,0,0,0,0,0,0,0,-0.0284,-0.0287,-0.0312,-0.0318,-0.0321,-0.0327,-0.0333,-0.0344,-0.0388,-0.0368,-0.0371,-0.0367,-0.0416,-0.0426,-0.043,-0.0446,-0.0455,-0.0456,-0.0457,-0.0458,-0.0538,-0.0539,0,0,0,0,0,0,-0.0271,-0.0286,-0.031,-0.0312,-0.0302,-0.0327,-0.0333,-0.0343,-0.0387,-0.0393,-0.0366,-0.037,-0.0423,-0.0428,-0.0432,-0.0492,-0.0456,-0.0458,-0.0459,-0.0536,-0.0538,-0.0539,0,0,0,0,0,0,-0.027,-0.0273,-0.0309,-0.0295,-0.03,-0.0326,-0.0337,-0.0343,-0.0374,-0.0385,-0.0393,-0.0393,-0.0424,-0.043,-0.0466,-0.0492,-0.0458,-0.046,-0.0535,-0.0537,-0.0539,-0.0568,0,0,0,0,0,0,-0.027,-0.0273,-0.0285,-0.0295,-0.03,-0.032,-0.0336,-0.0343,-0.0367,-0.0373,-0.041,-0.0416,-0.0425,-0.0463,-0.0467,-0.0494,-0.0461,-0.0534,-0.0536,-0.0538,-0.0565,-0.057,-0.0575,0,0,0,0,0,-0.0268,-0.0276,-0.0286,-0.0289,-0.0313,-0.032,-0.0324,-0.0348,-0.0368,-0.0381,-0.0413,-0.0416,-0.0481,-0.0465,-0.0469,-0.0497,-0.0532,-0.0535,-0.0538,-0.0563,-0.0569,-0.0575,0,0,0,0,0,0,-0.0269,-0.0282,-0.0294,-0.0306,-0.0317,-0.0328,-0.0342,-0.0357,-0.0393,-0.0409,-0.0426,-0.0434,-0.0479,-0.0481,-0.0464,-0.0528,-0.0509,-0.0512,-0.0526,-0.0532,-0.0537,-0.0524,-0.0462,0,0,0,0,0,-0.0272,-0.0284,-0.0294,-0.0305,-0.0313,-0.0332,-0.0342,-0.0359,-0.0382,-0.0401,-0.0423,-0.0455,-0.0488,-0.0505,-0.0529,-0.0556,-0.0545,-0.0579,-0.0584,-0.0587,-0.0581,-0.0592,-0.0597,-0.0548,-0.0548,-0.0548,0,0,-0.0273,-0.0282,-0.0289,-0.0306,-0.0321,-0.033,-0.0343,-0.0364,-0.0377,-0.04,-0.0437,-0.0472,-0.05,-0.054,-0.056,-0.0548,-0.0595,-0.0591,-0.0594,-0.0585,-0.0596,-0.06,-0.0604,-0.055,-0.055,-0.0549,0,0,-0.0271,-0.0294,-0.0302,-0.0311,-0.033,-0.0342,-0.0351,-0.0374,-0.0396,-0.0425,-0.0458,-0.0506,-0.0541,-0.0572,-0.0591,-0.0632,-0.0622,-0.065,-0.0661,-0.0672,-0.0676,-0.0679,-0.0664,-0.0666,-0.0649,-0.0649,-0.0649,0,-0.0273,-0.0286,-0.0304,-0.0312,-0.032,-0.0348,-0.0358,-0.0377,-0.041,-0.0429,-0.0441,-0.0524,-0.0553,-0.0608,-0.0633,-0.0643,-0.0639,-0.0637,-0.0677,-0.068,-0.0682,-0.0666,-0.0668,-0.0651,-0.0651,-0.0651,-0.065,0,-0.027,-0.0287,-0.0293,-0.0314,-0.0328,-0.0341,-0.0363,-0.0388,-0.0419,-0.0439,-0.0501,-0.0546,-0.0596,-0.0622,-0.0643,-0.0691,-0.0678,-0.0683,-0.0658,-0.0689,-0.067,-0.0671,-0.0653,-0.0653,-0.0652,-0.0652,0,0,-0.0259,-0.0285,-0.0289,-0.03,-0.0332,-0.0341,-0.0369,-0.0399,-0.0423,-0.0467,-0.05,-0.0578,-0.0615,-0.064,-0.0682,-0.0699,-0.0723,-0.0705,-0.0705,-0.0681,-0.0733,-0.0682,-0.0677,-0.0739,-0.074,-0.074,-0.0709,0,-0.0254,-0.0265,-0.0283,-0.0301,-0.0312,-0.0344,-0.0365,-0.0399,-0.0435,-0.0471,-0.0529,-0.0583,-0.0618,-0.0661,-0.0686,-0.072,-0.0728,-0.073,-0.0714,-0.0713,-0.0657,-0.0678,-0.0742,-0.071,-0.071,-0.071,-0.071,0,-0.0245,-0.0256,-0.0273,-0.03,-0.031,-0.0332,-0.0378,-0.04,-0.0455,-0.0483,-0.0544,-0.0586,-0.0648,-0.0665,-0.0714,-0.0716,-0.0728,-0.0738,-0.0737,-0.0677,-0.0663,-0.0676,-0.0711,-0.0711,-0.0711,-0.0711,-0.0711,0,-0.0226,-0.0248,-0.0265,-0.0272,-0.0309,-0.0335,-0.0366,-0.0418,-0.0435,-0.0505,-0.0522,-0.0596,-0.0631,-0.0668,-0.0693,-0.0715,-0.0709,-0.0739,-0.0693,-0.0689,-0.0729,-0.0726,-0.0754,-0.0754,-0.0754,-0.0754,-0.0754,0,-0.021,-0.0223,-0.0263,-0.0269,-0.0299,-0.0335,-0.0373,-0.041,-0.0456,-0.0465,-0.0541,-0.0546,-0.0634,-0.0641,-0.0675,-0.067,-0.0693,-0.0689,-0.0681,-0.0742,-0.0741,-0.0729,-0.0726,-0.0753,-0.0753,-0.0754,-0.0754,0,-0.0194,-0.0214,-0.0231,-0.0273,-0.0293,-0.0322,-0.0372,-0.0386,-0.0438,-0.0449,-0.047,-0.0512,-0.0526,-0.0572,-0.0609,-0.063,-0.0641,-0.0625,-0.0655,-0.0649,-0.062,-0.0619,-0.0598,-0.0596,-0.0594,-0.0593,-0.0591,0,-0.0188,-0.0197,-0.0232,-0.0246,-0.0274,-0.0317,-0.0338,-0.0386,-0.0386,-0.0404,-0.0391,-0.0417,-0.0441,-0.0435,-0.0504,-0.0547,-0.0556,-0.0563,-0.0634,-0.0611,-0.0606,-0.0608,-0.061,-0.0589,-0.0588,-0.0588,-0.0587,0,-0.0179,-0.0196,-0.0206,-0.0229,-0.0256,-0.0268,-0.0298,-0.0291,-0.0317,-0.0348,-0.0311,-0.0339,-0.0337,-0.0389,-0.0411,-0.0448,-0.0573,-0.0547,-0.0552,-0.0619,-0.06,-0.0597,-0.0601,-0.0582,-0.0582,-0.0583,-0.0583,0,-0.0178,-0.018,-0.0192,-0.0211,-0.0231,-0.0226,-0.0242,-0.0231,-0.0236,-0.0251,-0.0221,-0.0255,-0.0283,-0.0331,-0.0346,-0.0385,-0.0424,-0.0459,-0.047,-0.0478,-0.0464,-0.0424,-0.0337,0,0,0,0,0,-0.018,-0.0171,-0.0175,-0.0183,-0.0193,-0.0206,-0.0211,-0.0217,-0.0224,-0.0183,-0.0207,-0.0201,-0.0246,-0.0267,-0.0296,-0.0343,-0.0445,-0.038,-0.0493,-0.0549,-0.0556,-0.0558,0,0,0,0,0,0,-0.0178,-0.0177,-0.0164,-0.0156,-0.0156,-0.0159,-0.0163,-0.0164,-0.0142,-0.0154,-0.0169,-0.0202,-0.0241,-0.0218,-0.0289,-0.0305,-0.0381,-0.0411,-0.0411,-0.0545,-0.0552,-0.0557,-0.0561,0,0,0,0,0]}]]